Location: Newark
(42.8481°N, 0.4872°E)
Time: 16:23:31
(UTC+00:00)

Tiros 1 despin weight - Visible Passes

Search period start: 21 October 2020 00:00
Search period end: 31 October 2020 00:00
Orbit: 594 x 641 km, 48.2° (Epoch: 20 October)

Date Brightness Start Highest point End Pass type
(mag) Time Alt. Az. Time Alt. Az. Time Alt. Az.
21 Oct ? 03:24:52 26° ENE 03:24:52 26° ENE 03:26:53 10° ENE visible
21 Oct ? 05:01:55 24° WNW 05:04:13 45° N 05:08:29 10° ENE visible
22 Oct ? 03:40:43 35° NE 03:40:43 35° NE 03:43:21 10° ENE visible
22 Oct ? 05:17:46 16° WNW 05:20:53 41° N 05:25:05 10° ENE visible
23 Oct ? 03:56:32 41° NNE 03:56:32 41° NNE 03:59:49 10° ENE visible
23 Oct ? 05:33:35 11° WNW 05:37:34 42° N 05:41:47 10° ENE visible
24 Oct ? 04:12:20 42° N 04:12:20 42° N 04:16:21 10° ENE visible
24 Oct ? 05:49:55 10° WNW 05:54:13 50° NNE 05:58:31 10° E visible
25 Oct ? 02:51:05 11° ENE 02:51:05 11° ENE 02:51:11 10° ENE visible
25 Oct ? 04:28:08 38° NNW 04:28:49 41° N 04:33:00 10° ENE visible
26 Oct ? 03:06:53 15° ENE 03:06:53 15° ENE 03:07:40 10° ENE visible
26 Oct ? 04:43:56 31° NW 04:45:29 44° N 04:49:43 10° E visible
27 Oct ? 03:22:42 20° ENE 03:22:42 20° ENE 03:24:15 10° ENE visible
27 Oct ? 04:59:45 25° NW 05:02:06 56° NNE 05:06:27 10° E visible
28 Oct ? 03:38:33 27° NE 03:38:33 27° NE 03:40:56 10° ENE visible
28 Oct ? 05:15:36 20° WNW 05:18:39 80° NNE 05:23:03 10° ESE visible
29 Oct ? 03:54:26 39° NE 03:54:26 39° NE 03:57:40 10° E visible
29 Oct ? 05:31:30 15° WNW 05:35:04 64° SSW 05:39:26 10° SE visible
30 Oct ? 04:10:23 60° NE 04:10:23 60° NE 04:14:21 10° ESE visible
30 Oct ? 05:47:27 11° WNW 05:51:21 36° SW 05:55:24 10° SSE visible
